Погода в Байчурове

Россия / Воронежская область     51°20′32″N   42°41′09″E
темп.,
°C
ветер,
м/с
пор.,
м/с
влажн.,
%
обл.,
%
осадки,
мм/ч
давл.,
гПа
погр.,
м
7 марта, вс
вс700:00−11сз4109533 0.0 1016234
03:00−13зсз499525 0.0 1017160
06:00−13з34950 0.0 101867
09:00−9зюз410930 0.0 1018370
12:00−4зюз6107910 0.0 10161095
15:00−3юз6127955 0.0 10121033
18:00−3юз71671100 0.0 1009792
21:00−3юз91971100 0.0 1007840
8 марта, пн
пн800:00−3зюз91890100 0.1 1005944
03:00−2зюз91692100 0.3 1005854
06:00−2зюз6109698 0.6 1005463
09:00−1зюз7129496 1.1 1005895
12:00−1зюз91394100 0.3 10051008
15:000зюз7119799 0.9 1004770
18:00−4з4118387 0.9 1005312
21:00−7зсз349075 0.9 100779
9 марта, вт
вт900:00−8з369151 0.0 1009126
03:00−10з349425 0.0 101050
06:00−12зсз349448 0.0 101153
09:00−10зсз479538 0.0 1013290
12:00−8сз469198 0.1 1014519
15:00−8сз468699 0.2 1016715
18:00−11сз3691100 0.0 1016105
21:00−14ссз349483 0.0 101966
10 марта, ср
ср1000:00−17сз34951 0.0 101972
03:00−18сз34961 0.0 102152
06:00−19сз349817 0.0 102282
09:00−17сз489438 0.0 1023295
12:00−15сз578325 0.0 1025574
15:00−15сз468412 0.0 1025495
18:00−18сз34920 0.0 102569
21:00−20ссз34910 0.0 102850
11 марта, чт
чт1100:00−22с23930 0.0 102821
03:00−23ссв12930 0.0 103020
06:00−24всв11920 0.0 103020
09:00−21юв22872 0.0 103168
12:00−16ююв348159 0.0 1031221
15:00−13ююв358540 0.0 1030223
18:00−15юв45800 0.0 102965
21:00−13ююв5118023 0.0 1029160